Temperature
17 17 17 17 17 16 16 16 16 16 16 16 16 15 15 15 15 15 15 15 15 15 15 15 15 14 14 14 14 14 14 14 14 14 14 13 13 13 13 13 13 13 13
17 17 17 17 17 16 16 16 16 16 16 15 15 15 15 15 15 15 15 15 14 14 14 14 14 14 14 14 14 14 14 14 14 14 13 13 13 13 13 13 13 13 13
17 17 17 16 16 16 16 16 16 15 15 15 15 15 15 15 15 15 15 14 14 14 14 14 14 14 14 14 14 14 14 14 14 14 13 13 13 12 12 12 13 13 13
17 17 17 16 16 16 16 16 16 15 15 15 15 15 15 15 15 15 14 14 14 14 14 14 14 14 14 14 14 14 14 14 14 13 13 13 13 13 12 12 12 12 12
17 17 17 16 16 16 16 16 15 15 15 15 15 15 15 15 15 14 14 14 14 14 14 14 14 14 14 14 14 14 14 14 14 13 13 13 13 13 12 12 12 12 12
17 17 16 16 16 16 16 15 15 15 15 15 15 15 15 14 14 14 14 14 14 14 14 14 14 14 14 14 14 14 13 13 13 13 13 13 13 13 12 12 12 12 12
17 16 16 16 16 16 15 15 15 15 15 14 14 14 14 14 14 14 14 14 14 14 14 14 14 14 14 14 13 13 13 13 13 13 13 13 13 12 12 12 11 11 11
16 16 16 16 16 15 15 15 15 15 15 14 14 14 14 14 14 14 14 13 13 13 13 13 13 13 13 13 13 13 13 13 13 13 13 13 12 12 12 12 12 11 11
16 16 16 16 15 15 15 15 15 14 14 14 14 14 14 14 14 13 13 13 13 13 13 13 13 13 13 13 13 13 13 13 13 12 12 12 12 12 12 12 12 11 11
16 16 16 16 15 15 15 15 15 14 14 14 14 14 14 13 13 13 13 13 13 13 13 13 13 13 13 13 13 13 13 12 12 12 12 12 12 12 12 11 11 11 11
15 15 15 15 15 15 15 15 14 14 14 14 14 14 13 13 13 13 13 13 13 13 12 12 12 12 12 12 12 12 12 12 12 12 12 12 12 12 12 11 11 11 11
16 15 15 15 15 14 14 14 14 14 14 14 13 13 13 13 13 13 13 12 12 12 12 12 12 12 12 12 12 12 12 12 12 12 12 12 12 12 11 11 11 11 11
15 15 15 15 14 14 14 14 14 13 13 13 13 13 13 13 13 13 12 12 12 12 12 12 12 12 12 12 12 12 12 12 12 12 12 12 12 11 11 11 11 11 11
15 14 14 14 14 14 14 13 13 13 13 13 13 13 12 12 12 12 12 12 12 12 12 12 12 12 12 11 11 11 11 11 11 12 12 11 11 11 11 11 11 11 11
14 14 14 14 13 13 13 13 13 13 12 12 12 12 12 12 12 12 12 12 12 11 11 11 11 11 11 11 11 11 11 11 11 11 11 11 11 11 11 11 11 11 11
13 13 13 13 13 13 13 13 12 12 12 12 12 12 12 12 12 12 11 11 11 11 11 11 11 11 11 11 11 11 11 11 11 11 11 11 11 11 11 11 10 10 10
13 13 13 13 13 13 13 12 12 12 12 12 11 11 11 11 11 11 11 11 11 11 11 11 10 10 10 10 10 10 10 10 11 11 11 11 11 11 11 11 10 10 10
13 13 13 13 13 12 12 12 12 12 11 11 11 11 11 11 11 11 11 11 11 10 10 10 10 10 10 10 10 10 10 10 10 10 10 10 10 10 10 10 10 10 10
12 12 12 12 12 12 12 12 12 11 11 11 11 11 10 10 10 10 10 10 10 10 10 10 10 10 10 10 10 10 10 10 10 10 10 10 10 10 10 10 10 10 10
12 12 12 12 12 12 12 11 11 11 11 11 10 10 10 10 10 10 10 10 10 10 10 10 10 10 10 9 9 9 9 9 10 10 10 10 10 10 9 9 9 9 9
12 12 12 12 11 11 11 11 11 11 11 10 10 10 10 10 9 9 9 9 9 9 9 9 9 9 9 9 9 9 9 9 9 9 9 9 9 9 9 9 9 9 9
11 11 11 11 11 11 11 11 10 10 10 10 10 9 9 9 9 9 9 9 9 9 9 9 9 9 9 9 9 9 9 9 9 9 9 9 9 9 9 9 9 9 9
11 11 11 10 10 10 10 10 10 10 9 9 9 9 9 9 9 9 9 9 8 8 8 8 8 8 8 8 8 8 8 8 8 8 8 9 9 9 9 9 8 8 8
10 10 10 10 10 10 10 10 10 9 9 9 9 9 9 9 8 8 8 8 8 8 8 8 8 8 8 8 8 8 8 8 8 8 8 8 8 8 8 8 8 8 8
10 10 10 9 9 9 9 9 9 9 9 8 8 8 8 8 8 8 8 8 8 8 8 8 8 8 8 8 7 7 7 7 7 7 7 7 7 8 8 8 8 7 7
9 9 9 9 9 9 9 8 8 8 8 8 8 8 8 8 7 7 7 7 7 7 7 7 7 7 7 7 7 7 7 7 7 7 7 7 7 7 7 7 7 7 7
Wind_Speed
7 6 7 6 6 6 6 5 4 3 4 3 3 3 2 2 2 3 4 5 5 5 6 4 4 4 4 3 4 4 5 3 3 4 4 4 5 5 4 4 4 4 5
6 6 6 6 5 5 5 5 5 4 4 3 2 2 2 1 1 2 3 4 5 5 5 4 3 3 3 3 3 3 3 1 1 3 3 2 4 4 5 3 3 4 4
9 7 6 5 6 6 5 5 5 5 4 4 3 3 3 3 3 3 2 2 3 4 4 4 4 3 3 3 2 3 4 2 1 1 3 3 1 1 3 4 4 4 4
8 8 7 6 7 6 6 6 5 5 4 4 4 4 3 2 1 0 0 1 2 3 4 4 4 3 2 2 2 2 2 3 1 1 1 2 3 2 1 3 4 4 4
9 9 8 8 7 6 6 5 5 4 4 5 5 5 3 1 1 1 2 2 2 1 2 3 3 3 2 2 2 2 2 2 2 1 1 2 2 2 3 0 3 3 3
8 8 7 6 5 4 5 5 5 4 3 4 5 5 4 3 3 2 1 1 2 1 1 2 2 2 2 2 2 3 3 2 2 2 2 2 2 2 2 2 1 1 3
9 8 7 6 6 5 5 5 5 4 4 4 4 4 4 4 4 2 1 0 1 1 1 0 1 1 2 2 2 3 2 3 3 3 2 2 2 2 3 3 1 0 2
8 8 9 8 7 7 6 5 6 5 4 4 4 4 4 3 3 3 2 2 1 1 1 1 1 1 2 2 2 2 2 2 2 2 3 2 1 2 3 3 3 1 1
8 7 7 7 7 7 7 7 6 5 4 4 4 3 3 3 3 3 2 2 1 1 1 1 1 1 1 2 2 2 2 2 2 2 2 2 1 1 2 2 4 4 1
7 6 6 6 6 6 5 5 6 6 5 4 4 3 3 3 4 3 2 2 1 1 1 0 0 1 1 1 2 1 2 3 2 2 2 1 1 1 1 2 2 2 3
7 7 6 5 5 4 4 4 3 3 3 3 3 3 2 3 3 3 2 2 1 1 1 1 1 1 1 1 2 2 3 3 2 2 2 2 2 2 1 1 2 2 2
7 7 6 5 4 4 3 4 4 3 3 3 3 3 2 2 2 2 2 2 2 1 1 1 1 0 0 1 1 2 3 3 3 3 3 2 2 2 2 2 1 2 2
5 5 5 5 5 5 4 4 3 3 3 2 3 3 2 2 3 3 2 2 2 1 1 1 1 1 1 1 2 2 3 3 4 4 4 3 3 2 2 2 2 1 1
5 5 5 4 4 4 4 4 3 3 3 2 2 3 2 2 3 2 2 2 2 2 1 1 1 1 1 1 2 1 1 3 3 3 4 4 5 5 4 3 3 3 2
4 4 5 4 4 3 3 3 3 3 3 3 2 2 3 2 2 2 2 2 2 2 1 1 0 1 1 1 2 2 2 3 3 2 2 3 4 5 4 4 4 4 3
4 4 4 4 4 5 4 4 3 3 3 3 3 2 2 2 2 2 2 2 2 1 1 1 1 0 1 2 2 1 2 3 3 3 2 2 3 3 4 4 5 5 5
4 5 5 4 4 5 5 5 4 4 3 3 2 1 2 2 2 2 2 2 2 2 1 2 1 1 2 2 2 1 2 2 3 4 3 2 2 2 2 3 3 3 4
4 4 4 3 3 3 3 3 3 4 4 2 2 2 2 2 2 2 2 3 2 2 2 3 2 2 2 2 2 2 2 2 3 3 4 4 3 3 3 3 3 3 3
3 3 3 3 2 2 3 3 3 3 3 3 3 3 3 2 2 3 3 3 3 2 2 3 3 3 3 3 2 1 1 2 3 3 3 4 4 4 4 4 3 3 3
1 1 1 2 2 2 3 4 3 3 3 3 4 3 3 3 4 4 4 3 3 3 3 3 3 4 4 4 3 1 1 2 3 3 3 4 4 4 5 5 5 4 4
2 2 3 2 2 3 4 3 3 3 4 3 3 3 3 3 4 3 3 2 2 2 3 3 3 3 4 4 4 3 2 3 3 3 3 4 5 4 4 4 5 6 4
2 3 3 2 1 2 4 3 3 3 2 1 2 2 2 3 2 2 2 2 2 2 3 3 3 3 3 4 4 4 4 2 2 4 4 4 5 4 4 4 4 3 2
2 2 3 2 1 1 3 3 3 2 1 1 1 2 2 2 1 2 2 1 2 2 3 2 3 3 3 3 5 5 5 4 3 3 4 4 4 3 3 3 3 2 2
1 1 2 2 1 1 1 3 2 2 2 2 2 2 1 1 1 1 2 2 3 3 3 3 4 3 3 3 3 2 3 4 3 3 3 3 2 2 2 2 2 2 3
1 1 2 2 1 1 2 2 2 2 2 2 2 2 2 2 2 2 2 3 4 4 4 4 4 4 4 5 4 2 3 3 3 1 1 1 1 1 1 2 2 2 2
1 1 1 1 1 1 1 2 2 2 2 2 2 2 2 2 2 2 3 4 3 5 5 5 5 5 6 5 4 5 5 4 3 1 1 2 3 3 3 3 3 2 3
Wind_Direction
178 162 155 149 140 134 129 131 122 119 110 92 85 85 67 53 58 78 91 93 99 106 109 101 98 97 101 109 109 101 88 77 87 79 49 32 31 42 38 39 46 42 42
167 165 151 143 144 145 140 136 133 127 120 121 126 125 127 97 84 69 66 82 93 103 117 115 120 111 106 97 102 113 106 84 71 108 92 38 12 14 21 25 39 30 37
170 165 153 148 150 154 154 145 140 134 125 119 103 81 63 47 42 41 30 52 96 97 110 120 125 126 125 129 131 132 129 136 14 87 131 132 184 338 355 10 20 17 24
168 167 160 160 166 173 165 150 145 137 130 123 119 120 116 118 175 174 18 11 64 93 107 112 120 130 133 138 148 140 142 136 134 21 57 127 149 141 5 345 356 14 24
171 170 170 170 169 166 163 156 146 139 139 133 135 132 121 131 96 53 55 27 9 53 106 118 118 124 140 147 143 135 134 136 144 142 108 75 71 97 134 232 335 355 356
174 174 170 159 156 148 144 147 145 148 148 142 141 141 139 127 101 69 49 13 352 345 29 122 118 136 150 159 156 147 140 137 128 122 121 134 132 146 137 159 238 327 328
170 167 162 160 162 157 156 151 148 156 159 153 152 158 155 149 149 148 147 100 0 331 291 186 152 161 173 162 150 137 140 139 130 135 135 139 151 150 141 139 161 302 318
166 170 173 173 172 169 166 159 155 159 167 167 173 172 166 162 168 172 171 178 204 246 276 255 194 188 168 153 139 130 149 135 139 144 143 133 152 143 145 154 150 120 350
168 170 173 177 176 175 175 171 168 166 171 176 174 173 176 176 180 184 178 185 208 228 260 318 246 236 174 158 144 144 152 144 154 160 146 133 158 152 157 152 156 154 178
168 171 174 174 177 180 178 169 169 176 178 179 180 185 193 189 186 180 187 199 212 206 159 95 86 211 194 177 152 160 160 151 172 163 142 137 151 149 149 157 166 156 164
171 173 175 175 169 156 151 152 164 164 174 181 180 173 188 185 180 186 199 200 202 188 174 188 157 154 199 200 175 192 177 174 180 175 159 173 158 145 143 150 151 149 144
168 168 168 162 157 159 161 162 167 168 180 182 172 173 179 178 180 191 197 190 182 191 190 174 143 172 221 188 179 215 202 191 191 195 173 186 166 154 159 152 161 178 173
155 157 157 164 172 177 179 177 175 173 170 160 159 163 168 175 191 198 194 180 165 164 157 128 138 192 223 212 213 213 210 200 201 197 186 190 169 181 189 172 172 184 169
147 150 163 176 183 182 183 181 183 176 165 159 159 174 186 188 191 186 169 163 158 161 173 171 188 216 229 221 209 209 214 198 203 199 193 192 188 192 192 185 182 168 146
150 159 171 177 176 174 186 185 182 175 165 156 164 191 203 191 170 172 170 162 159 168 165 154 216 309 268 256 237 210 205 200 204 212 209 207 201 198 194 187 180 164 158
175 174 171 175 183 183 187 184 179 177 163 161 179 191 185 178 183 190 182 169 184 187 164 178 184 291 290 292 261 201 203 205 199 214 232 232 212 207 199 188 174 168 171
183 186 188 193 198 196 187 183 186 174 161 167 176 188 185 194 205 204 186 192 205 197 203 221 212 225 254 301 295 229 193 207 211 212 213 220 228 198 188 192 187 196 199
189 196 199 197 197 188 180 177 168 164 168 176 193 207 202 215 220 197 207 220 220 208 216 224 218 222 250 281 287 248 189 213 231 221 207 206 225 209 189 186 194 221 231
190 197 200 197 181 171 171 152 149 161 171 192 211 218 212 216 219 214 222 223 218 221 222 221 214 224 258 273 279 261 180 232 251 247 232 217 211 216 192 180 203 236 261
141 154 163 143 148 165 155 149 162 167 199 218 224 220 214 216 222 223 224 224 220 229 232 235 229 229 245 261 262 247 199 236 258 261 256 243 226 221 200 192 197 221 243
112 111 115 135 164 160 143 153 170 204 223 228 222 212 215 222 223 218 220 222 225 237 245 248 254 246 250 259 253 239 219 226 248 255 253 248 245 233 217 208 203 221 226
89 106 105 102 149 151 145 160 208 232 231 215 221 228 227 232 237 215 222 214 201 222 245 255 272 271 265 263 258 245 241 235 223 250 246 246 247 239 231 223 233 234 205
109 111 118 106 35 171 159 178 226 227 189 189 228 248 246 245 237 215 221 227 210 218 241 244 256 268 269 273 269 258 253 249 240 257 259 266 250 230 231 251 252 218 194
121 118 111 100 359 296 223 210 219 193 177 205 230 235 231 263 266 238 222 220 221 225 236 239 250 264 269 264 264 260 261 255 257 275 292 293 273 230 242 260 255 228 213
139 131 142 163 233 271 263 256 229 181 191 217 228 236 231 231 254 260 242 235 233 224 226 233 234 236 251 255 252 241 247 239 237 239 331 326 296 262 272 260 254 252 253
154 130 136 180 247 264 296 298 251 200 199 226 233 227 226 238 245 269 305 296 271 269 259 251 248 255 257 261 247 248 259 259 226 186 230 243 238 236 241 251 260 254 245
Height
1527 1528 1529 1530 1531 1531 1532 1532 1533 1533 1533 1533 1533 1533 1534 1534 1535 1535 1535 1535 1535 1535 1535 1535 1535 1535 1535 1535 1535 1535 1535 1535 1535 1534 1534 1535 1535 1534 1534 1534 1533 1532 1531
1526 1527 1528 1529 1530 1531 1531 1532 1532 1533 1533 1533 1534 1534 1534 1535 1535 1535 1535 1535 1535 1535 1535 1535 1535 1535 1535 1535 1535 1535 1535 1535 1535 1535 1535 1535 1537 1535 1535 1534 1534 1533 1532
1523 1525 1527 1528 1529 1529 1530 1531 1532 1532 1533 1533 1534 1534 1534 1534 1534 1535 1535 1535 1535 1535 1535 1535 1535 1535 1535 1535 1535 1535 1535 1535 1536 1535 1536 1535 1535 1536 1536 1535 1534 1534 1533
1521 1523 1525 1526 1527 1528 1529 1530 1531 1532 1532 1533 1533 1533 1533 1534 1534 1534 1535 1535 1535 1535 1535 1535 1534 1534 1534 1535 1535 1535 1535 1535 1535 1535 1535 1536 1535 1535 1535 1536 1535 1534 1533
1519 1520 1522 1524 1526 1527 1528 1529 1530 1531 1532 1532 1533 1533 1533 1533 1534 1534 1534 1534 1534 1534 1534 1534 1534 1534 1534 1534 1534 1534 1534 1534 1534 1534 1534 1535 1535 1535 1534 1534 1534 1534 1533
1517 1519 1521 1523 1524 1526 1527 1528 1529 1530 1531 1531 1532 1532 1532 1533 1533 1533 1533 1533 1534 1534 1533 1533 1533 1533 1533 1533 1533 1533 1533 1533 1534 1534 1534 1534 1534 1534 1534 1533 1533 1533 1533
1514 1517 1519 1520 1522 1524 1525 1526 1528 1528 1529 1530 1531 1531 1532 1532 1532 1532 1533 1532 1532 1532 1532 1532 1532 1532 1532 1532 1532 1532 1532 1532 1532 1533 1533 1533 1533 1533 1533 1533 1532 1532 1532
1512 1514 1516 1518 1520 1522 1523 1525 1526 1527 1528 1529 1529 1530 1531 1531 1531 1531 1532 1532 1531 1531 1531 1531 1531 1531 1531 1531 1531 1531 1531 1531 1531 1532 1532 1532 1532 1532 1532 1532 1532 1531 1532
1510 1512 1514 1516 1518 1520 1521 1523 1524 1525 1526 1527 1528 1529 1529 1529 1530 1530 1530 1530 1530 1530 1530 1529 1529 1529 1529 1529 1529 1529 1530 1530 1530 1531 1531 1531 1531 1531 1531 1531 1531 1531 1530
1509 1510 1512 1514 1516 1518 1519 1521 1522 1523 1524 1525 1526 1527 1527 1528 1528 1529 1528 1528 1528 1528 1528 1527 1527 1527 1528 1528 1528 1528 1528 1529 1529 1529 1530 1529 1529 1530 1530 1530 1530 1529 1529
1507 1509 1511 1512 1514 1516 1518 1519 1520 1521 1522 1523 1524 1525 1525 1526 1526 1527 1527 1527 1527 1527 1526 1526 1525 1525 1525 1525 1526 1526 1527 1527 1527 1528 1528 1528 1528 1528 1528 1528 1528 1528 1528
1505 1507 1509 1511 1513 1514 1516 1517 1518 1519 1520 1521 1522 1522 1523 1524 1524 1524 1525 1525 1525 1525 1524 1524 1523 1523 1523 1523 1523 1524 1524 1524 1525 1526 1526 1526 1526 1526 1526 1526 1526 1526 1526
1504 1506 1508 1509 1511 1512 1513 1514 1515 1516 1517 1518 1519 1520 1520 1521 1521 1522 1522 1523 1523 1522 1522 1522 1521 1521 1521 1521 1521 1521 1522 1522 1523 1523 1524 1524 1524 1524 1524 1524 1524 1524 1524
1503 1505 1506 1507 1509 1510 1511 1512 1513 1514 1515 1516 1516 1517 1517 1518 1519 1520 1520 1520 1520 1520 1520 1519 1519 1519 1518 1518 1519 1519 1519 1520 1520 1521 1521 1521 1522 1522 1522 1522 1522 1522 1522
1502 1503 1504 1505 1507 1508 1509 1510 1511 1511 1512 1513 1514 1514 1515 1516 1517 1517 1517 1518 1517 1517 1517 1517 1516 1516 1516 1516 1516 1516 1516 1517 1517 1518 1518 1518 1519 1519 1519 1519 1519 1520 1519
1501 1502 1503 1504 1505 1505 1507 1508 1508 1509 1510 1510 1511 1512 1513 1513 1514 1514 1515 1515 1515 1515 1515 1514 1514 1514 1513 1513 1514 1514 1513 1514 1514 1514 1515 1515 1516 1516 1516 1517 1517 1517 1517
1499 1500 1501 1501 1502 1504 1504 1505 1506 1507 1507 1508 1509 1509 1510 1510 1510 1511 1511 1512 1512 1512 1512 1512 1511 1511 1511 1511 1511 1511 1510 1510 1510 1511 1512 1512 1512 1513 1513 1513 1514 1514 1514
1498 1498 1499 1500 1501 1502 1503 1503 1504 1505 1505 1505 1506 1507 1507 1507 1507 1508 1508 1508 1509 1509 1509 1508 1508 1508 1508 1508 1508 1507 1507 1507 1507 1508 1508 1508 1509 1509 1509 1510 1510 1510 1510
1496 1497 1497 1498 1499 1500 1501 1502 1502 1503 1503 1503 1503 1504 1504 1504 1505 1505 1505 1505 1506 1506 1506 1506 1505 1505 1505 1505 1505 1505 1504 1504 1504 1504 1504 1505 1505 1505 1506 1506 1506 1506 1506
1495 1495 1496 1497 1497 1498 1499 1500 1500 1500 1500 1500 1501 1501 1502 1502 1502 1502 1502 1503 1503 1503 1503 1503 1503 1502 1502 1502 1502 1502 1501 1500 1500 1500 1500 1501 1501 1501 1501 1502 1502 1502 1502
1494 1495 1495 1495 1495 1496 1497 1497 1498 1497 1498 1498 1499 1499 1499 1499 1499 1499 1500 1500 1500 1500 1500 1500 1499 1499 1499 1499 1498 1498 1497 1497 1496 1496 1496 1497 1497 1497 1498 1498 1498 1498 1499
1493 1493 1493 1493 1494 1495 1495 1495 1495 1495 1496 1496 1496 1496 1496 1497 1497 1496 1497 1497 1497 1497 1496 1496 1495 1495 1495 1495 1495 1494 1494 1493 1493 1492 1493 1493 1493 1494 1494 1494 1494 1495 1495
1492 1492 1492 1492 1493 1493 1493 1493 1493 1493 1493 1494 1494 1493 1493 1494 1494 1493 1493 1493 1493 1493 1492 1492 1491 1491 1491 1491 1491 1490 1490 1490 1489 1489 1489 1489 1489 1490 1490 1490 1491 1491 1491
1491 1491 1491 1490 1491 1491 1491 1492 1491 1491 1491 1491 1491 1491 1490 1490 1490 1490 1490 1490 1489 1489 1489 1488 1488 1487 1487 1487 1487 1487 1486 1486 1485 1485 1485 1485 1485 1486 1486 1486 1486 1487 1487
1490 1490 1489 1489 1489 1489 1489 1489 1489 1489 1489 1488 1488 1488 1488 1487 1487 1487 1487 1486 1486 1486 1485 1485 1484 1484 1483 1483 1484 1483 1483 1482 1482 1481 1481 1481 1481 1481 1482 1482 1482 1482 1483
1488 1488 1488 1488 1487 1487 1487 1487 1487 1486 1486 1485 1485 1485 1485 1484 1484 1483 1483 1483 1483 1483 1482 1482 1481 1480 1480 1480 1480 1480 1480 1479 1479 1478 1477 1476 1476 1477 1477 1477 1478 1478 1478